TDRS 13

Last updated on Sun Jun 21 2026 00:02:59 GMT+0000 (Coordinated Universal Time)

1 42915U 17047A 26171.38973046 -.00000105 00000+0 00000+0 0 9992 2 42915 3.4525 2.8357 0014653 106.4266 288.2031 1.00271929 32382
UTC large
Height (km)
Speed (km/s)
/
Latitude / Longitude
Inclination (degrees)
Orbital Period (minutes)
Azimuth
Elevation
Range (km)
Doppler Factor

Next 0 passes for location: London (51.5072 / 0.1276)

No passes found over London.
TDRS 13